Regional Weather Roundup
Issued by NWS Wilmington, NC

Current Version | Previous Version | Graphics & Text | Print | Product List | Glossary Off
Versions: 1 2 3 4 5 6 7 8 9 10 11 12 13 14 15 16 17 18 19 20 21 22 23 24 25 26 27 28

000
ASUS42 KILM 261313
RWRILM
RWRILM
REGIONAL HOURLY WEATHER ROUNDUP
NATIONAL WEATHER SERVICE WILMINGTON NC
900 AM EDT WED JUL 26 2017

NOTE: "FAIR" INDICATES FEW OR NO CLOUDS BELOW 12,000 FEET WITH NO
SIGNIFICANT WEATHER AND/OR OBSTRUCTIONS TO VISIBILITY.

...............WFO WILMINGTON COUNTY WARNING AREA...............

......COASTAL NC AND SC COUNTIES......

CITY           SKY/WX    TMP DP  RH WIND       PRES   REMARKS
WILMINGTON     CLOUDY    79  71  76 NE8       30.13S
N MYRTLE BEACH CLOUDY    80  75  84 NE9       30.12R
MYRTLE BEACH   NOT AVBL

......INLAND NC AND SC COUNTIES.......

CITY           SKY/WX    TMP DP  RH WIND       PRES   REMARKS
LUMBERTON      PTSUNNY   77  69  76 E8        30.15R
ELIZABETHTOWN  NOT AVBL
WHITEVILLE     PTSUNNY   77  71  83 NE6       30.14R
FLORENCE       CLOUDY    78  75  90 NE10      30.14R
DARLINGTON     CLOUDY    77  74  90 NE10      30.16R
KINGSTREE      CLOUDY    77  73  88 E5        30.13R
HARTSVILLE     CLOUDY    77  72  83 E7        30.15R
BENNETTSVILLE  FAIR      81  72  74 E7        30.15S
CONWAY         CLOUDY    79  73  83 NE6       30.13R FOG
GEORGETOWN     CLOUDY    77  77 100 CALM      30.12R
MARION         FAIR      79  72  78 E9        30.14R

....................REST OF NORTH CAROLINA......................

.........EASTERN NC.........

CITY           SKY/WX    TMP DP  RH WIND       PRES   REMARKS
CAPE HATTERAS  MOSUNNY   80  68  66 NE10      30.15R
JACKSONVILLE   CLOUDY    75  71  87 NE6       30.16R
MOREHEAD CITY  PTSUNNY   80  72  76 NE8       30.14R
KENANSVILLE    MOSUNNY   75  68  78 NE5       30.17R
NEW BERN       CLOUDY    77  71  82 E8        30.17R
ELIZABETH CITY MOSUNNY   78  71  79 E10       30.17S

.........CENTRAL NC.........

CITY           SKY/WX    TMP DP  RH WIND       PRES   REMARKS
RALEIGH DURHAM MOSUNNY   76  65  68 E9        30.19R
ROCKY MOUNT    SUNNY     76  68  76 VRB3      30.19R
ROANOKE RAPIDS NOT AVBL
FAYETTEVILLE   PTSUNNY  N/A N/A N/A NE6       30.16R
HOFFMAN        MOSUNNY   75  68  78 E6        30.17R

.........WESTERN NC.........

CITY           SKY/WX    TMP DP  RH WIND       PRES   REMARKS
CHARLOTTE      CLOUDY    76  72  87 NE8       30.19R
GREENSBORO     CLOUDY    73  65  75 NE7       30.22R
HICKORY        NOT AVBL
BOONE          NOT AVBL
ASHEVILLE      NOT AVBL

.....................REST OF SOUTH CAROLINA.....................

.........EASTERN SC.........

CITY           SKY/WX    TMP DP  RH WIND       PRES   REMARKS
CHARLESTON     LGT RAIN  75  73  93 E6        30.10S
BEAUFORT MCAS  CLOUDY    79  77  94 NW5       30.11S
HILTON HEAD    TSTM      77  75  94 S14       30.12R

.........CENTRAL SC.........

CITY           SKY/WX    TMP DP  RH WIND       PRES   REMARKS
COLUMBIA       MOSUNNY   80  73  79 E6        30.12R
ORANGEBURG     PTSUNNY   79  72  79 N6        30.12R
SUMTER SHAW    CLOUDY    76  74  93 NE6       30.11S FOG

.........WESTERN SC.........

CITY           SKY/WX    TMP DP  RH WIND       PRES   REMARKS
GREENVILLE     NOT AVBL
ROCK HILL      CLOUDY    74  71  91 VRB6      30.18R FOG
ANDERSON       CLOUDY    77  71  82 E5        30.16R
CLEMSON        NOT AVBL
GREENWOOD      PTSUNNY   76  72  87 SE3       30.16R


...................COASTAL AND OFFSHORE REPORTS..................

................LOCAL PIERS AND NC RESERVE................


STATION/POSITION TIME  SKY/WX   TEMP    WIND        PRES    VSBY
                                AIR SEA DIR/SP/G
                 (UTC)          (F)     (DEG/KT/KT) (MB)    (MI)
JOHNY MRCER PIER 1242            78 83   30/ 14/ 18 1019.2R
NC RESRV MASNBRO NOT AVBL
OCEAN CREST PIER NOT AVBL
SPRINGMAID  PIER 1242                               1019.4R


................COASTAL AND OFFSHORE BUOYS................


STATION/POSITION TIME  SKY/WX   TEMP    WIND        PRES    VSBY
                                AIR SEA DIR/SP/G
                 (UTC)          (F)     (DEG/KT/KT) (MB)    (MI)
DIMNDSHOAL 41025 1250            81 83   50/ 12/ 16 1020.1R
WVE H/P(F/S)=  3/ 5 SWL H/P/D(F/S/D)=  2/ 60/ 7

CAPE LOOKOUT     1300            78      40/ 15/ 16 1019.9S
ONSLOW BAY 41036 NOT AVBL
ONSLOW BAY 41064 1208            81 84   70/ 16/ 21 1019.5R
ONSLOW BAY 41159 1243               84                N/A
WVE H/P(F/S)=  4/ 5

MASNBO INL 41110 1259               82                N/A
WVE H/P(F/S)=  4/ 6

WILM HARBR 41108 1300               81                N/A
WVE H/P(F/S)=  3/ 5

27SE WRITB 41037 1208            82 82  100/ 14/ 19 1019.1R
FRYING PAN 41013 1300            82 82  100/  6/  6 1019.0
SUNST NRSH 41024 1208            79 83   60/ 10/ 14 1019.2R
CAPRS NRSH 41029 1208            78 84  330/  4/  8 1019.0R
EDISTO     41004 1250            79 83  200/ 16/ 17 1019.4R
WVE H/P(F/S)=  2/ 9 SWL H/P/D(F/S/D)=  2/120/ 9



..........OFFSHORE BUOYS BEYOND 100 NM OFFSHORE...........
.....IN A TRIANGLE---HAT TO BERMUDA TO BAHAMAS TO HAT.....


STATION/POSITION TIME  SKY/WX   TEMP    WIND        PRES    VSBY
                                AIR SEA DIR/SP/G
                 (UTC)          (F)     (DEG/KT/KT) (MB)    (MI)
150E HAT   41001 1300            80 81   30/ 12/ 16 1020.0
W BERMUDA  41048 1250            82 83  260/  6/  8 1020.4S
WVE H/P(F/S)=  4/ 7 SWL H/P/D(F/S/D)=  3/300/ 7

ATLANTIC S 41049 1250            83 84  120/ 10/ 12 1021.5R
WVE H/P(F/S)=  4/ 7 SWL H/P/D(F/S/D)=  3/140/ 7

E BAHAMAS  41046 1250            83 84  100/ 12/ 16 1018.5S
WVE H/P(F/S)=  4/ 7 SWL H/P/D(F/S/D)=  2/110/ 7

NE BAHAMAS 41047 1250            84 85  110/  8/ 10 1020.5S
WVE H/P(F/S)=  3/ 6 SWL H/P/D(F/S/D)=  3/140/ 6

120E CANVRL41010 1250            84 84  200/  8/ 10 1019.5S
WVE H/P(F/S)=  2/ 9 SWL H/P/D(F/S/D)=  2/110/ 9


END




USA.gov is the U.S. government's official web portal to all federal, state and local government web resources and services.